Location: Recife
(8.0585°S, 34.8848°W)
Time: 21:12:34
(UTC-03:00)

A-11 Canister half - Pass Details

Date: 20 April 2026
Orbit: 1523 x 1685 km, 47.3° (Epoch: 12 May)

Event Time Altitude Azimuth Distance (km) Brightness Sun altitude
Rises 21:21:44 0° 253° (WSW) 4,760 12.0 -61.1°
Reaches altitude 10° 21:26:10 10° 271° (W) 3,802 11.3 -62.1°
Enters shadow 21:27:49 13° 280° (W) 3,541 11.1 -62.5°
Maximum altitude 21:32:07 18° 310° (NW) 3,245 - -63.6°
Drops below altitude 10° 21:38:11 10° 349° (NNW) 3,872 - -65.1°
Sets 21:42:51 0° 7° (N) 4,881 - -66.2°
